Change the Weather History Date:

Sunday, April 28, 2013

  Actual Average Record
Temperature  
Mean Temperature 70 °F -  
Max Temperature 82 °F 80 °F 97 °F (2014)
Min Temperature 59 °F 61 °F 46 °F (2008)
Cooling Degree Days 5    
Growing Degree Days 20 (Base 50)    
Moisture  
Dew Point 64 °F    
Average Humidity 85    
Maximum Humidity 100    
Minimum Humidity 53    
Precipitation  
Precipitation 0.00 in - - ()
Sea Level Pressure  
Sea Level Pressure 29.97 in    
Wind  
Wind Speed 7 mph (SE)    
Max Wind Speed 15 mph    
Max Gust Speed 20 mph    
Visibility 10 miles    
Events      
Averages and records for this station are not official NWS values.
T = Trace of Precipitation, MM = Missing Value Source: NWS Daily Summary

Daily Weather History Graph

Daily Weather History Graph

Search for Another Location

Airport or City:

Trip Planner

Search our weather history database for the weather conditions in past years. The results will help you decide how hot, cold, wet, or windy it might be!

Date:

Astronomy

Apr. 28, 2013 Rise Set
Actual Time 6:53 AM CDT 8:08 PM CDT
Civil Twilight 6:28 AM CDT 8:33 PM CDT
Nautical Twilight 5:58 AM CDT 9:03 PM CDT
Astronomical Twilight 5:27 AM CDT 9:33 PM CDT
Moon 11:32 PM CDT (4/28) 9:19 AM CDT (4/28)
Length of Visible Light 14h 04m
Length of Day
13h 14m
Waning Gibbous, 88% of the Moon is Illuminated
Apr 28
Waning Gibbous
May 2
Last Quarter
May 9
New
May 17
First Quarter
May 24
Full

Hourly Weather History & Observations

Time (CDT) Temp. Heat Index Dew Point Humidity Pressure Visibility Wind Dir Wind Speed Gust Speed Precip Events Conditions
12:02 AM 66.2 °F - 66.2 °F 100% 30.05 in 10.0 mi Calm Calm - N/A   Mostly Cloudy
12:11 AM 66.2 °F - 66.2 °F 100% 30.03 in 10.0 mi South 6.9 mph - N/A   Mostly Cloudy
12:29 AM 66.2 °F - 66.2 °F 100% 30.02 in 10.0 mi South 5.8 mph - N/A   Mostly Cloudy
12:56 AM 66.2 °F - 66.2 °F 100% 30.01 in 10.0 mi SE 5.8 mph - N/A   Mostly Cloudy
12:58 AM 65.7 °F - 65.7 °F 100% 29.99 in 10.0 mi SE 4.6 mph - 0.00 in   Mostly Cloudy
1:25 AM 66.2 °F - 66.2 °F 100% 30.03 in 10.0 mi SSW 13.8 mph - N/A   Overcast
1:28 AM 66.2 °F - 66.2 °F 100% 30.03 in 10.0 mi South 11.5 mph - N/A   Overcast
1:30 AM 66.2 °F - 66.2 °F 100% 30.02 in 10.0 mi South 13.8 mph - N/A   Light Drizzle
1:33 AM 66.2 °F - 66.2 °F 100% 30.02 in 10.0 mi South 13.8 mph - N/A   Light Drizzle
1:41 AM 64.4 °F - 64.4 °F 100% 30.01 in 10.0 mi SSE 10.4 mph - N/A   Overcast
1:50 AM 64.4 °F - 64.4 °F 100% 29.99 in 10.0 mi SSE 12.7 mph - N/A   Overcast
1:57 AM 64.4 °F - 64.4 °F 100% 29.99 in 10.0 mi SE 8.1 mph - N/A   Mostly Cloudy
1:58 AM 64.4 °F - 64.4 °F 100% 29.98 in 10.0 mi SE 8.1 mph - 0.00 in   Mostly Cloudy
2:58 AM 63.0 °F - 63.0 °F 100% 29.98 in 10.0 mi NE 5.8 mph - N/A   Clear
3:58 AM 61.3 °F - 61.3 °F 100% 29.98 in 10.0 mi NNE 3.5 mph - N/A   Clear
4:58 AM 59.7 °F - 59.7 °F 100% 29.99 in 10.0 mi North 4.6 mph - N/A   Scattered Clouds
5:58 AM 60.1 °F - 60.1 °F 100% 30.00 in 10.0 mi NE 3.5 mph - N/A   Clear
6:58 AM 59.0 °F - 59.0 °F 100% 30.00 in 10.0 mi NE 2.3 mph - N/A   Partly Cloudy
7:58 AM 61.9 °F - 61.9 °F 100% 30.00 in 10.0 mi North 2.3 mph - N/A   Clear
8:58 AM 66.2 °F - 66.0 °F 99% 30.00 in 10.0 mi NNE 2.3 mph - N/A   Clear
9:58 AM 70.3 °F - 63.1 °F 78% 30.00 in 10.0 mi Variable 2.3 mph - N/A   Clear
10:58 AM 73.4 °F - 63.1 °F 70% 30.00 in 10.0 mi SSE 6.9 mph - N/A   Clear
11:58 AM 75.4 °F - 63.0 °F 65% 29.99 in 10.0 mi SE 10.4 mph - N/A   Clear
12:58 PM 76.6 °F - 64.8 °F 67% 29.99 in 10.0 mi SE 13.8 mph 18.4 mph N/A   Scattered Clouds
1:00 PM 77.0 °F - 64.4 °F 65% 30.00 in 10.0 mi South 12.7 mph 18.4 mph N/A   Scattered Clouds
1:18 PM 77.0 °F - 64.4 °F 65% 29.99 in 10.0 mi SSE 15.0 mph 19.6 mph N/A   Mostly Cloudy
1:27 PM 77.0 °F - 64.4 °F 65% 29.99 in 10.0 mi SSE 12.7 mph - N/A   Scattered Clouds
1:58 PM 77.2 °F - 64.0 °F 64% 29.96 in 10.0 mi Variable 5.8 mph - N/A   Partly Cloudy
2:58 PM 79.2 °F - 64.4 °F 60% 29.93 in 10.0 mi SSE 4.6 mph - N/A   Clear
3:58 PM 81.0 °F 82.5 °F 64.0 °F 56% 29.88 in 10.0 mi Variable 4.6 mph - N/A   Clear
4:58 PM 81.7 °F 83.0 °F 63.7 °F 54% 29.86 in 10.0 mi SE 6.9 mph - N/A   Partly Cloudy
5:58 PM 81.1 °F 82.4 °F 63.0 °F 54% 29.87 in 10.0 mi SSE 8.1 mph - N/A   Clear
6:58 PM 80.8 °F 81.9 °F 62.4 °F 53% 29.86 in 10.0 mi SSE 8.1 mph - N/A   Partly Cloudy
7:58 PM 74.7 °F - 62.2 °F 65% 29.88 in 10.0 mi SSE 8.1 mph - N/A   Scattered Clouds
8:58 PM 70.9 °F - 65.3 °F 82% 29.90 in 10.0 mi South 6.9 mph - N/A   Clear
9:58 PM 71.2 °F - 67.8 °F 89% 29.93 in 10.0 mi SSE 5.8 mph - N/A   Clear
10:58 PM 68.5 °F - 68.2 °F 99% 29.94 in 10.0 mi SSE 4.6 mph - N/A   Clear
11:58 PM 67.5 °F - 67.3 °F 99% 29.93 in 10.0 mi East 4.6 mph - N/A   Clear